Regional Weather Roundup
Issued by NWS Kansas City/Pleasant Hill, MO

Home | Current Version | Previous Version | Text Only | Print | Product List | Glossary On
Versions: 1 2 3 4 5 6 7 8 9 10 11 12 13 14 15 16 17 18 19 20 21 22 23 24 25 26 27 28 29 30 31 32 33 34 35 36 37 38 39 40 41 42 43 44 45 46 47 48 49 50
000
ASUS43 KEAX 211611
RWREAX

WEATHER ROUNDUP FOR EASTERN KANSAS AND NORTHWEST MISSOURI
NATIONAL WEATHER SERVICE KANSAS CITY/PLEASANT HILL MO
1000 AM CST SUN DEC 21 2014

KSZ040-057-103>105-MOZ028-029-037-043-211700-
...KANSAS CITY METROPOLITAN AREA...

CITY           SKY/WX    TMP DP  RH WIND       PRES   REMARKS
K.C. INTL      DRIZZLE   40  37  89 S13       30.00S WCI  32
K.C. DOWNTOWN  CLOUDY    42  37  82 S16       30.01F WCI  34
LEES SUMMIT    CLOUDY    41  39  93 S12G17    30.02F WCI  34
OLATHE - IXD   CLOUDY    39  38  96 S13       30.01F FOG     WCI  31
OLATHE - OJC   CLOUDY    40  38  93 S12       30.00F FOG     WCI  33
LAWRENCE       CLOUDY    41  37  86 S10       30.00F WCI  35

$$

MOZ001>008-011>017-020>025-030>033-038>040-044>046-053-054-211700-
...NORTHERN AND CENTRAL MISSOURI...

CITY           SKY/WX    TMP DP  RH WIND       PRES   REMARKS
ST. JOSEPH     CLOUDY    40  36  86 S13       29.99F WCI  32
MOSBY            N/A     37  37 100 SE6       30.02F FOG     WCI  33
WHITEMAN AFB   CLOUDY    41  40  95 S14       30.06F WCI  33
CLINTON        CLOUDY    43  41  93 SE9       30.08F FOG
SEDALIA        CLOUDY    43  39  86 S13       30.08F
WARSAW         NOT AVBL
MARSHALL       CLOUDY    45  39  81 S13       30.08F
CHILLICOTHE      N/A     42  38  85 S9        30.04F
MOBERLY        CLOUDY    43  36  75 SE10      30.09S
KIRKSVILLE     CLOUDY    40  37  89 S12       30.06F WCI  33

$$

MOZ041-047>049-056>058-063>065-088>090-097-211700-
...EASTERN AND SOUTHERN MISSOURI...

CITY           SKY/WX    TMP DP  RH WIND       PRES   REMARKS
ST. LOUIS INTL CLOUDY    41  32  70 SE12      30.20F WCI  34
SPIRIT OF STL  CLOUDY    42  33  70 SE9       30.18S
COLUMBIA       CLOUDY    42  36  79 S13       30.11S
JEFFERSON CITY CLOUDY    43  36  76 SE10      30.13F
MEXICO         CLOUDY    43  41  93 S10       30.12R
HANNIBAL       CLOUDY    43  34  70 S10G17    30.12S
ROLLA          CLOUDY    39  34  82 SE12      30.12F WCI  32
LEBANON        CLOUDY    39  37  93 S9G16     30.11S FOG     WCI  33
OSAGE BEACH    CLOUDY    43  36  75 S8        30.12S
SPRINGFIELD    CLOUDY    41  38  89 S13       30.09S FOG     WCI  34
BRANSON        CLOUDY    39  37  93 SE9       30.13R WCI  33
NEVADA         LGT RAIN  41  41 100 S6        30.07F
JOPLIN         LGT RAIN  43  41  93 S8          N/A  FOG
WEST PLAINS    CLOUDY    38  34  85 SE6       30.16R WCI  33

$$

IAZ060-094-KSZ022-034>040-054-083-096-NEZ052-066-093-211700-
...KANSAS...SOUTHEAST NEBRASKA AND IOWA...

CITY           SKY/WX    TMP DP  RH WIND       PRES   REMARKS
TOPEKA         CLOUDY   N/A N/A N/A S13       29.98F
MANHATTAN      CLOUDY    42  38  85 S12       29.93F
EMPORIA        CLOUDY    39  38  96 S14       29.96F FOG     WCI  31
CHANUTE        CLOUDY    42  40  92 S12       30.03F
WICHITA        CLOUDY    42  37  82 S13       29.94F
OMAHA          CLOUDY    39  37  92 S20       29.87F FOG     WCI  29
LINCOLN        CLOUDY    39  37  92 S15G23    29.86F FOG     WCI  31
FALLS CITY     CLOUDY    39  36  89 S16       29.93F WCI  30
LAMONI         CLOUDY    37  35  92 S16G22    29.98F WCI  28
DES MOINES     CLOUDY    40  33  76 MISG      29.96S

$$



USA.gov is the U.S. government's official web portal to all federal, state and local government web resources and services.